K9WAE Weather Reports


time (UTC)temp
C
wind
direction
speed
KPH
gust
KPH
rain 1hr
cm
rain 24hr
cm
rain mn
cm
humidity
%
barometer
mb
20260509023813 16 0 0.0 0.0 0.00 0.00 0.00 57 1010.1
20260509022703 16 0 0.0 0.0 0.00 0.00 0.00 57 1010.0
20260509021803 16 0 0.0 0.0 0.00 0.00 0.00 57 1009.9
20260509021115 16 0 0.0 0.0 0.00 0.00 0.00 56 1009.9
20260509020003 16 0 0.0 0.0 0.00 0.00 0.00 56 1009.9
20260509015403 16 0 0.0 0.0 0.00 0.00 0.00 56 1010.0
20260509014503 16 0 0.0 0.0 0.00 0.00 0.00 56 1010.0
20260509013603 16 0 0.0 0.0 0.00 0.00 0.00 56 1009.9
20260509012704 17 0 0.0 0.0 0.00 0.00 0.00 56 1009.8
20260509011803 17 0 0.0 0.0 0.00 0.00 0.00 55 1009.9
20260509010903 17 0 0.0 0.0 0.00 0.00 0.00 54 1009.9
20260509010213 17 0 0.0 0.0 0.00 0.00 0.00 53 1009.9
20260509005403 17 0 0.0 0.0 0.00 0.00 0.00 53 1009.8
20260509004717 17 0 0.0 0.0 0.00 0.00 0.00 52 1009.8
20260509003603 18 0 0.0 0.0 0.00 0.00 0.00 51 1009.7
20260509002916 18 0 0.0 0.0 0.00 0.00 0.00 50 1009.6
20260509002014 18 0 0.0 0.0 0.00 0.00 0.00 50 1009.6
20260509000903 18 0 0.0 0.0 0.00 0.00 0.00 49 1009.7
20260509000004 19 0 0.0 0.0 0.00 0.00 0.00 48 1009.8
20260508235403 19 0 0.0 0.0 0.00 0.00 0.00 47 1009.9
20260508234503 19 205 0.0 3.2 0.00 0.00 0.00 46 1009.8
20260508233603 20 0 0.0 0.0 0.00 0.00 0.00 46 1009.9
20260508232703 20 0 0.0 0.0 0.00 0.00 0.00 45 1009.7
20260508231803 20 0 0.0 0.0 0.00 0.00 0.00 44 1009.8
20260508230903 20 0 0.0 0.0 0.00 0.00 0.00 45 1010.0
20260508230003 20 0 0.0 0.0 0.00 0.00 0.00 44 1010.1
20260508225403 20 0 0.0 0.0 0.00 0.00 0.00 43 1009.9
20260508224713 20 0 0.0 0.0 0.00 0.00 0.00 42 1009.9
20260508223603 21 0 0.0 0.0 0.00 0.00 0.00 42 1009.9
20260508222703 21 240 0.0 8.0 0.00 0.00 0.00 43 1009.7
20260508221803 21 0 0.0 0.0 0.00 0.00 0.00 44 1009.8
20260508220903 21 0 0.0 0.0 0.00 0.00 0.00 44 1009.6
20260508220004 21 0 0.0 0.0 0.00 0.00 0.00 44 1009.5
20260508215403 21 0 0.0 0.0 0.00 0.00 0.00 46 1009.7
20260508214503 21 0 0.0 0.0 0.00 0.00 0.00 42 1009.7
20260508213603 21 0 0.0 0.0 0.00 0.00 0.00 42 1009.9
20260508212913 21 0 0.0 0.0 0.00 0.00 0.00 42 1009.8
20260508211803 21 0 0.0 0.0 0.00 0.00 0.00 41 1009.9
20260508210903 22 0 0.0 0.0 0.00 0.00 0.00 41 1010.1
20260508210003 22 0 0.0 0.0 0.00 0.00 0.00 40 1010.4
20260508205617 21 202 0.0 6.4 0.00 0.00 0.00 42 1010.3
20260508204714 21 173 0.0 4.8 0.00 0.00 0.00 41 1010.4
20260508203817 21 234 0.0 1.6 0.00 0.00 0.00 42 1010.4
20260508202703 21 189 0.0 4.8 0.00 0.00 0.00 40 1010.7
20260508201803 21 220 0.0 9.7 0.00 0.00 0.00 41 1011.0
20260508201114 21 227 0.0 9.7 0.00 0.00 0.00 42 1011.0
20260508200003 21 0 0.0 0.0 0.00 0.00 0.00 42 1011.2
20260508195403 21 240 0.0 6.4 0.00 0.00 0.00 43 1011.2
20260508194503 21 151 0.0 3.2 0.00 0.00 0.00 42 1011.4
20260508193603 21 187 1.6 22.5 0.00 0.00 0.00 42 1011.5
20260508192703 21 0 0.0 0.0 0.00 0.00 0.00 41 1011.7
20260508191803 21 246 1.6 22.5 0.00 0.00 0.00 38 1011.8
20260508190903 21 0 0.0 0.0 0.00 0.00 0.00 45 1011.8
20260508190003 21 0 0.0 0.0 0.00 0.00 0.00 41 1011.6
20260508185403 21 194 3.2 25.7 0.00 0.00 0.00 43 1011.6
20260508184504 21 0 0.0 0.0 0.00 0.00 0.00 43 1011.7
20260508183603 21 0 0.0 0.0 0.00 0.00 0.00 42 1012.0
20260508182703 21 204 0.0 9.7 0.00 0.00 0.00 42 1012.2
20260508181803 21 216 0.0 9.7 0.00 0.00 0.00 44 1012.2
20260508180903 20 0 0.0 0.0 0.00 0.00 0.00 43 1012.5
20260508180004 20 0 0.0 0.0 0.00 0.00 0.00 41 1012.6
20260508175403 20 0 0.0 0.0 0.00 0.00 0.00 42 1012.8
20260508174504 20 0 0.0 0.0 0.00 0.00 0.00 41 1013.1
20260508173603 20 0 0.0 0.0 0.00 0.00 0.00 45 1013.2
20260508172703 20 0 0.0 0.0 0.00 0.00 0.00 41 1013.4
20260508171803 20 185 6.4 27.4 0.00 0.00 0.00 43 1013.5
20260508171115 20 174 1.6 19.3 0.00 0.00 0.00 44 1013.5
20260508170004 20 0 0.0 0.0 0.00 0.00 0.00 42 1013.7
20260508165404 20 0 0.0 0.0 0.00 0.00 0.00 43 1013.9
20260508164503 20 199 1.6 17.7 0.00 0.00 0.00 45 1014.0
20260508163603 20 0 0.0 0.0 0.00 0.00 0.00 47 1014.4
20260508162703 19 0 0.0 0.0 0.00 0.00 0.00 46 1014.5
20260508161803 18 0 0.0 0.0 0.00 0.00 0.00 46 1014.6
20260508160903 19 235 1.6 25.7 0.00 0.00 0.00 47 1014.7
20260508160004 18 251 4.8 25.7 0.00 0.00 0.00 48 1014.8
20260508155403 18 0 0.0 0.0 0.00 0.00 0.00 47 1014.9
20260508154503 18 282 0.0 9.7 0.00 0.00 0.00 45 1015.0
20260508153603 18 0 0.0 0.0 0.00 0.00 0.00 49 1015.2
20260508152703 18 0 0.0 0.0 0.00 0.00 0.00 46 1015.2
20260508151803 18 0 0.0 0.0 0.00 0.00 0.00 51 1015.4
20260508150903 18 0 0.0 0.0 0.00 0.00 0.00 48 1015.4
20260508150004 17 0 0.0 0.0 0.00 0.00 0.00 48 1015.5
20260508145403 17 0 0.0 0.0 0.00 0.00 0.00 51 1015.5
20260508144503 17 0 0.0 0.0 0.00 0.00 0.00 50 1015.6
20260508143815 17 0 0.0 0.0 0.00 0.00 0.00 51 1015.6
20260508142703 16 0 0.0 0.0 0.00 0.00 0.00 50 1015.7
20260508142015 16 0 0.0 0.0 0.00 0.00 0.00 51 1015.7
20260508140903 16 0 0.0 0.0 0.00 0.00 0.00 54 1015.8
20260508140003 16 0 0.0 0.0 0.00 0.00 0.00 52 1015.7
20260508135616 15 0 0.0 0.0 0.00 0.00 0.00 54 1015.8
20260508134503 15 251 0.0 11.3 0.00 0.00 0.00 54 1015.8
20260508133603 15 0 0.0 0.0 0.00 0.00 0.00 55 1015.9
20260508132703 14 251 0.0 4.8 0.00 0.00 0.00 57 1015.7
20260508131803 14 255 0.0 9.7 0.00 0.00 0.00 56 1015.8
20260508130903 13 0 0.0 0.0 0.00 0.00 0.00 57 1015.8
20260508130003 13 0 0.0 0.0 0.00 0.00 0.00 59 1015.8
20260508125403 13 0 0.0 0.0 0.00 0.00 0.00 58 1015.7
20260508124503 12 225 0.0 6.4 0.00 0.00 0.00 59 1015.8
20260508123603 12 239 0.0 1.6 0.00 0.00 0.00 60 1015.7
20260508122703 11 0 0.0 0.0 0.00 0.00 0.00 62 1015.7
20260508122017 11 0 0.0 0.0 0.00 0.00 0.00 63 1015.6
20260508121114 11 0 0.0 0.0 0.00 0.00 0.00 64 1015.7
20260508120003 10 0 0.0 0.0 0.00 0.00 0.00 64 1015.5
20260508115403 10 218 0.0 9.7 0.00 0.00 0.00 66 1015.6
20260508114503 9 224 1.6 9.7 0.00 0.00 0.00 66 1015.5
20260508113603 9 0 0.0 0.0 0.00 0.00 0.00 67 1015.4
20260508112703 8 0 0.0 0.0 0.00 0.00 0.00 68 1015.3
20260508111803 8 0 0.0 0.0 0.00 0.00 0.00 71 1015.3
20260508110903 7 0 0.0 0.0 0.00 0.00 0.00 73 1015.1
20260508110004 7 0 0.0 0.0 0.00 0.00 0.00 74 1015.1
20260508105403 7 0 0.0 0.0 0.00 0.00 0.00 74 1015.2
20260508104503 6 0 0.0 0.0 0.00 0.00 0.00 74 1015.1
20260508103603 7 0 0.0 0.0 0.00 0.00 0.00 74 1015.2
20260508102915 7 0 0.0 0.0 0.00 0.00 0.00 73 1015.1
20260508101803 7 0 0.0 0.0 0.00 0.00 0.00 73 1015.1
20260508100903 7 0 0.0 0.0 0.00 0.00 0.00 73 1015.1
20260508100004 7 0 0.0 0.0 0.00 0.00 0.00 72 1015.1
20260508095403 7 0 0.0 0.0 0.00 0.00 0.00 71 1015.1
20260508094503 7 0 0.0 0.0 0.00 0.00 0.00 71 1015.1
20260508093603 7 0 0.0 0.0 0.00 0.00 0.00 70 1015.1
20260508092703 7 0 0.0 0.0 0.00 0.00 0.00 70 1015.1
20260508091803 7 0 0.0 0.0 0.00 0.00 0.00 70 1015.1
20260508090903 8 0 0.0 0.0 0.00 0.00 0.00 69 1015.1
20260508090003 8 0 0.0 0.0 0.00 0.00 0.00 67 1015.1
20260508085403 8 0 0.0 0.0 0.00 0.00 0.00 67 1015.1
20260508084503 8 0 0.0 0.0 0.00 0.00 0.00 66 1015.1
20260508083814 8 0 0.0 0.0 0.00 0.00 0.00 65 1015.1
20260508082703 8 0 0.0 0.0 0.00 0.00 0.00 64 1015.0
20260508081803 8 0 0.0 0.0 0.00 0.00 0.00 64 1015.0
20260508080903 8 0 0.0 0.0 0.00 0.00 0.00 64 1014.9
20260508080003 8 0 0.0 0.0 0.00 0.00 0.00 64 1015.0
20260508075403 8 0 0.0 0.0 0.00 0.00 0.00 64 1015.0
20260508074712 8 0 0.0 0.0 0.00 0.00 0.00 64 1015.0
20260508073603 9 0 0.0 0.0 0.00 0.00 0.00 63 1015.1
20260508072703 9 0 0.0 0.0 0.00 0.00 0.00 63 1015.2
20260508071803 8 0 0.0 0.0 0.00 0.00 0.00 63 1015.2
20260508070903 8 0 0.0 0.0 0.00 0.00 0.00 64 1015.3
20260508070214 8 0 0.0 0.0 0.00 0.00 0.00 64 1015.4
20260508065403 9 0 0.0 0.0 0.00 0.00 0.00 64 1015.5
20260508064713 9 0 0.0 0.0 0.00 0.00 0.00 64 1015.5
20260508063815 9 0 0.0 0.0 0.00 0.00 0.00 63 1015.5
20260508062703 9 0 0.0 0.0 0.00 0.00 0.00 63 1015.6
20260508061803 9 0 0.0 0.0 0.00 0.00 0.00 63 1015.7
20260508060903 9 0 0.0 0.0 0.00 0.00 0.00 63 1015.7
20260508060003 9 0 0.0 0.0 0.00 0.00 0.00 63 1015.8
20260508055404 9 0 0.0 0.0 0.00 0.00 0.00 62 1015.9
20260508054503 9 0 0.0 0.0 0.00 0.00 0.00 63 1016.0
20260508053816 8 0 0.0 0.0 0.00 0.00 0.00 63 1016.0
20260508052913 8 0 0.0 0.0 0.00 0.00 0.00 63 1016.0
20260508051803 8 0 0.0 0.0 0.00 0.00 0.00 62 1016.0
20260508051113 8 0 0.0 0.0 0.00 0.00 0.00 62 1016.0
20260508050004 9 0 0.0 0.0 0.00 0.00 0.00 62 1016.0
20260508045403 9 0 0.0 0.0 0.00 0.00 0.00 61 1016.0
20260508044503 9 0 0.0 0.0 0.00 0.00 0.00 61 1016.0
20260508043603 9 0 0.0 0.0 0.00 0.00 0.00 61 1016.0
20260508042703 9 0 0.0 0.0 0.00 0.00 0.00 61 1016.1
20260508041803 9 0 0.0 0.0 0.00 0.00 0.00 60 1016.0
20260508040903 10 0 0.0 0.0 0.00 0.00 0.00 58 1016.1
20260508040216 10 0 0.0 0.0 0.00 0.00 0.00 58 1016.1
20260508035403 10 0 0.0 0.0 0.00 0.00 0.00 57 1016.0
20260508034503 10 0 0.0 0.0 0.00 0.00 0.00 57 1015.9
20260508033603 10 0 0.0 0.0 0.00 0.00 0.00 58 1015.9
20260508032703 9 0 0.0 0.0 0.00 0.00 0.00 60 1015.9
20260508031803 9 0 0.0 0.0 0.00 0.00 0.00 62 1015.9
20260508030903 8 0 0.0 0.0 0.00 0.00 0.00 66 1015.9
20260508030003 7 0 0.0 0.0 0.00 0.00 0.00 70 1015.9
20260508025403 7 0 0.0 0.0 0.00 0.00 0.00 72 1015.8
20260508024503 7 0 0.0 0.0 0.00 0.00 0.00 75 1015.7